Location: Hall+in+Tirol
(47.2830°N, 11.5170°E)
Time: 04:13:22
(UTC+02:00)

Gurwin Techsat 1B - Visible Passes

Search period start: 21 October 2014 00:00
Search period end: 30 October 2014 23:00
Orbit: 813 x 814 km, 98.5° (Epoch: 19 October)

Date Brightness Start Highest point End Pass type
(mag) Time Alt. Az. Time Alt. Az. Time Alt. Az.
21 Oct 10.9 03:32:11 10° NNE 03:33:52 19° NE 03:33:52 19° NE visible
21 Oct 9.9 05:12:18 10° N 05:15:05 26° NNW 05:15:05 26° NNW visible
22 Oct 11.3 03:09:57 10° NE 03:10:48 14° NE 03:10:48 14° NE visible
22 Oct 10.0 04:49:23 10° N 04:52:01 28° N 04:52:01 28° N visible
23 Oct 10.2 04:26:36 10° NNE 04:28:57 27° N 04:28:57 27° N visible
23 Oct 10.5 06:08:29 10° NNW 06:10:10 13° NW 06:10:10 13° NW visible
24 Oct 10.6 04:03:57 10° NNE 04:05:53 23° NNE 04:05:53 23° NNE visible
24 Oct 10.3 05:44:57 10° NNW 05:47:05 18° NW 05:47:05 18° NW visible
25 Oct 11.0 03:41:25 10° NNE 03:42:49 18° NNE 03:42:49 18° NNE visible
25 Oct 10.2 05:21:48 10° N 05:24:01 21° NNW 05:24:01 21° NNW visible
26 Oct 11.4 02:19:04 10° NNE 02:19:45 13° NE 02:19:45 13° NE visible
26 Oct 10.2 03:58:49 10° N 04:00:57 23° N 04:00:57 23° N visible
27 Oct 10.4 03:35:59 10° N 03:37:53 23° N 03:37:53 23° N visible
27 Oct 10.6 05:18:29 10° NNW 05:19:06 11° NW 05:19:06 11° NW visible
28 Oct 10.7 03:13:16 10° NNE 03:14:49 20° NNE 03:14:49 20° NNE visible
28 Oct 10.5 04:54:36 10° NNW 04:56:02 14° NNW 04:56:02 14° NNW visible
29 Oct 11.1 02:50:41 10° NNE 02:51:45 16° NNE 02:51:45 16° NNE visible
29 Oct 10.4 04:31:19 10° N 04:32:58 17° NNW 04:32:58 17° NNW visible
30 Oct 11.4 02:28:15 10° NNE 02:28:41 12° NNE 02:28:41 12° NNE visible
30 Oct 10.5 04:08:16 10° N 04:09:54 19° N 04:09:54 19° N visible
